This is the latest recevied weather packets stored in our database for station/object LZ1HCO-25. If no packets are shown the sender has not sent any weather packets the latest 10 day(s).
| Time | Temp. | Humidity | Pressure | Rain* | Wind** | Luminosity | Snow |
|---|---|---|---|---|---|---|---|
| 1777274772 | 13.89° C | 77% | 976 hPa | - | - | 0 W/m² | - |
| 1777274460 | 13.89° C | 74% | 976 hPa | - | - | 0 W/m² | - |
| 1777274149 | 13.33° C | 74% | 976 hPa | - | - | 0 W/m² | - |
| 1777273838 | 13.33° C | 73% | 976 hPa | - | - | 0 W/m² | - |
| 1777273526 | 13.33° C | 74% | 976 hPa | - | - | 0 W/m² | - |
| 1777273215 | 12.78° C | 75% | 976 hPa | - | - | 0 W/m² | - |
| 1777272904 | 12.22° C | 77% | 976 hPa | - | - | 0 W/m² | - |
| 1777272592 | 13.89° C | 77% | 976 hPa | - | - | 0 W/m² | - |
| 1777272281 | 13.33° C | 80% | 976 hPa | - | - | 0 W/m² | - |
| 1777271970 | 11.11° C | 77% | 976 hPa | - | - | 0 W/m² | - |
| 1777271658 | 12.78° C | 80% | 976 hPa | - | - | 0 W/m² | - |
| 1777271347 | 12.22° C | 79% | 976 hPa | - | - | 0 W/m² | - |
| 1777271035 | 12.22° C | 81% | 976 hPa | - | - | 0 W/m² | - |
| 1777270724 | 12.22° C | 84% | 976 hPa | - | - | 0 W/m² | - |
| 1777270413 | 10.56° C | 86% | 976 hPa | - | - | 0 W/m² | - |
| 1777270101 | 11.11° C | 85% | 976 hPa | - | - | 0 W/m² | - |
| 1777269790 | 11.11° C | 91% | 976 hPa | - | - | 0 W/m² | - |
| 1777269479 | 10.56° C | 92% | 976 hPa | - | - | 0 W/m² | - |
| 1777269167 | 10.56° C | 94% | 976 hPa | - | - | 0 W/m² | - |
| 1777268856 | 10.56° C | 94% | 976 hPa | - | - | 0 W/m² | - |
| 1777268544 | 10° C | 99% | 976 hPa | - | - | 0 W/m² | - |
* Rain since midnight (hover to see other rain measurements)
** Current wind speed in m/s (hover to see current wind gust speed)